sat.trackr.live / text

‹ back to catalog

STARLINK-30188

NORAD 57432 · 2023-105C

PAYLOAD ACTIVE UNKNOWN

§ Identity

Operator
Country
US
Launch date
2023-07-24
Launch site
AFETR
Launch vehicle
Mass (kg)
RCS (m²)

Purposes: comms

External: N2YO · Heavens-Above · Gunter

§ Orbital elements

Epoch: 2026-05-24T13:35:07.977120Z

Period
94.27 min
Inclination
43.0020°
Eccentricity
0.0001323
Mean motion
15.27574705 rev/d
Perigee alt
482.2 km
Apogee alt
484.0 km
Semi-major
6,861.2 km
B*
1.2219e-5
RAAN
194.9717°
Arg perigee
276.8423°
Mean anomaly
83.2278°
Rev number
15,711

§ Raw data

STARLINK-301881 57432U 23105C   26144.56606455  .00000074  00000+0  12219-4 0  99952 57432  43.0020 194.9717 0001323 276.8423  83.2278 15.27574705157119

JSON: /api/v1/satellites/57432 · /tle

For live sub-satellite position, see the globe view (requires WebGL).

§ Visibility from observer

Set your observer location to see the next 7 days of passes ≥ 10°. The values pass through the URL so the page stays shareable.

No JS? Fill the form by hand. The geolocation button needs JavaScript.